User: anonymous   Login
Location: Fort Wayne
(41.1310°N, 85.1290°W)
Time: 07:11:36
(UTC-04:00)
Language:

Cosmos 2082 - Orbit

View from above orbital plane
View from above orbital plane
View from above satellite
View from above satellite

Ground track
Ground track

The orbit data is extracted from the following two-line orbital elements,

1 20624U 90046A   14297.78794565 -.00000092  00000-0 -23771-4 0   535
2 20624 071.0423 077.1414 0013174 053.2005 061.6247 14.14104721260579
Epoch (UTC): 24 October 2014 18:54:38
Eccentricity: 0.0013174
inclination: 71.0423°
perigee height: 836 km
apogee height: 855 km
right ascension of ascending node: 77.1414°
argument of perigee: 53.2005°
revolutions per day: 14.14104721
mean anomaly at epoch: 61.6247°
orbit number at epoch: 26057

The dashed part of the orbit path shows where the satellite is in the earth's shadow,  

DLR